Regional Weather Roundup
Issued by NWS Grand Forks, ND

Home | Current Version | Previous Version | Graphics & Text | Print | Product List | Glossary On
Versions: 1 2 3 4 5 6 7 8 9 10 11 12 13 14 15 16 17 18 19 20 21 22 23 24 25 26 27 28 29 30 31 32 33 34 35 36 37 38 39 40 41 42 43 44 45 46 47 48 49 50
330
ASUS43 KFGF 231510
RWRFGF
PRAIRIE TO PINES  WEATHER ROUNDUP
NATIONAL WEATHER SERVICE EASTERN NORTH DAKOTA/GRAND FORKS ND
1000 AM CDT MON OCT 23 2017

 **SATELLITE DATA USED TO AUGMENT SKY COVER AT AUTOMATED STATIONS**
 *****  WEATHER ACROSS EASTERN NORTH DAKOTA  *****

CITY           SKY/WX    TMP DP  RH WIND       PRES   REMARKS
GRAND FORKS    CLOUDY    46  39  76 NW25G37   29.86R
GRAND FRKS AFB CLOUDY    44  37  76 NW23G30   29.87R
DEVILS LAKE    FAIR      42  38  85 NW20G25   29.95R
FARGO          CLOUDY    47  40  76 NW24G37   29.85R
WAHPETON ARPT  NOT AVBL
$$

 ***** WEATHER ACROSS CENTRAL AND WESTERN NORTH DAKOTA  *****

CITY           SKY/WX    TMP DP  RH WIND       PRES   REMARKS
BISMARCK       PTSUNNY   47  37  68 NW17G31   30.07R
MINOT          CLOUDY    45  35  68 W20G30    30.03R
JAMESTOWN      CLOUDY    45  37  73 NW18G30   29.96R
MINOT AFB      CLOUDY    43  35  74 NW20G29   30.01R
GARRISON         N/A     42  35  76 NW22G32   30.06R
WILLISTON      SUNNY     45  34  65 W13       30.13R
DICKINSON      FAIR      45  33  63 W20       30.13R
HETTINGER      FAIR      46  31  55 NW28G36   30.17R
$$

 *****  OTHER AIRPORT OBSERVATIONS IN OUR AREA  *****

CITY           SKY/WX    TMP DP  RH WIND       PRES   REMARKS
WALHALLA       FAIR     N/A N/A N/A NW17G23   29.90R
GRAFTON AIRPOR NOT AVBL
VALLEY CITY AR NOT AVBL
CANDO          FAIR      43  43 100 NW16G22   29.97R
CAVALIER APRT  FAIR      43  36  75 NW26G32   29.88R
GWINNER          N/A     46  39  76 NW24G30   29.92R
SHEYENNE NWR     N/A     47  40  76 NW16      29.95S
ROLLA          FAIR      41  37  87 NW21G28   29.95R
 ***** THE ABOVE OBSERVATIONS ARE NON NWS ARE NOT QUALITY
       CONTROLLED AND MAY MIS-REPORT RAIN FOR SNOW...
$$

  *****  WEATHER ACROSS NORTHERN MINNESOTA  *****

CITY           SKY/WX    TMP DP  RH WIND       PRES   REMARKS
FLAG ISLAND    CLOUDY    48  39  71 N23       29.69R
WARROAD        CLOUDY    46  39  76 NW17G25   29.72R
ROSEAU         CLOUDY    46  41  81 NW24G31   29.74R
HALLOCK        CLOUDY    43  36  75 NW23G30   29.84R
THF RVR FALLS  LGT RAIN  43  40  89 NW26G33   29.80R
BAUDETTE       CLOUDY    47  44  90 NW13      29.66R
WASKISH        PTSUNNY   46  43  87 W13G20    29.69R
CROOKSTON      DRIZZLE   46  39  76 NW20G33   29.84R
STEPHEN NDAWN    N/A     45  34  65 N18         N/A
GREENBUSH NDAW   N/A     45  37  76 NW18        N/A
$$
  *****  WEATHER ACROSS CENTRAL AND WEST MINNESOTA  *****

CITY           SKY/WX    TMP DP  RH WIND       PRES   REMARKS
FOSSTON        CLOUDY    43  39  87 NW15G22   29.78R
BEMIDJI        CLOUDY    45  39  81 W15       29.73R
PARK RAPIDS    LGT RAIN  46  40  79 NW16G23   29.75R
ELBOW LAKE     CLOUDY    46  38  72 NW21G32   29.84R
WADENA         PTSUNNY   46  37  71 NW17G25   29.78R
DETROIT LAKES  CLOUDY    45  39  81 NW18      29.81R
MOORHEAD       CLOUDY    46  39  76 NW23      29.85R
FERGUS FALLS   CLOUDY    46  37  71 NW22G30   29.84R
MORRIS MN      FAIR      52  36  54 NW28G37   29.83R
STAPLES        FAIR      48  36  61 W22G30    29.76S
$$
  *****  WEATHER ELSEWHERE ACROSS MINNESOTA  *****

CITY           SKY/WX    TMP DP  RH WIND       PRES   REMARKS
DULUTH         FAIR      54  39  57 W12       29.66F
INTRNTL FALLS  CLOUDY    50  47  89 W8        29.63R
ELY            FAIR      48  43  81 S6        29.65F
CLOQUET        FAIR      55  37  50 W8        29.67F
WHEATON        PTSUNNY   48  36  61 W25G32    29.88R
BRAINERD       FAIR      53  40  61 W16G23    29.74R
HIBBING        FAIR      53  39  59 VRB7      29.67R
ALEXANDRIA     FAIR      50  37  61 NW24G36   29.81R
SAINT CLOUD    FAIR      53  41  63 NW16      29.75F
MINNEAPOLIS    FAIR      57  43  59 NW18G25   29.76S
$$

  *****  WEATHER ACROSS SOUTH DAKOTA  *****

CITY           SKY/WX    TMP DP  RH WIND       PRES   REMARKS
SIOUX FALLS    FAIR      54  40  59 NW20G30   29.96R
BROOKINGS      FAIR      51  38  60 NW26G33   29.92F
WATERTOWN      FAIR      49  39  68 NW24G37   29.90S
HURON          FAIR      51  38  60 NW25G36   30.00R
SISSETON         N/A     49  37  63 NW31G41   29.88R
ABERDEEN       PTSUNNY   49  38  65 NW24      29.99R
MITCHELL       FAIR      53  39  59 NW24G30   30.04R
PIERRE         FAIR      52  35  52 NW28G37   30.09R
MOBRIDGE       FAIR      50  35  56 NW31G39   30.05R
RAPID CITY     FAIR      51  22  31 NW36G46   30.25R
$$

  *****  SOME WEATHER IN NEARBY STATES *****

CITY           SKY/WX    TMP DP  RH WIND       PRES   REMARKS
GLASGOW MT     FAIR      37  29  72 W7        30.25R
GREAT FALLS MT FAIR      41  25  53 SW12      30.42R
CHEYENNE WY    FLURRIES  35  28  75 N13G20    30.42R
SCOTTSBLUFF NE FAIR      50  22  33 NW18      30.37R
OMAHA NE       PTSUNNY   61  40  45 N21G30    29.95R
DES MOINES IA  FAIR      55  41  59 NW14G20   29.88R
DAVENPORT IA   FAIR      49  46  90 CALM      29.89F
CHICAGO IL     LGT RAIN  52  49  89 NE9       29.83F
EAU CLAIRE WI  PTSUNNY   51  40  65 S8        29.75F
LA CROSSE WI   CLOUDY    51  44  77 S12       29.81F
$$

  *****  SOME NATIONAL WEATHER *****

CITY           SKY/WX    TMP DP  RH WIND       PRES   REMARKS
LA GUARDIA NY  PTSUNNY   72  62  71 SE9       30.26F
RALEIGH NC     DRIZZLE   66  65  96 SE7       30.13F
ATLANTA GA     LGT RAIN  64  64 100 W14       29.88R FOG
NEW ORLEANS LA PTSUNNY   64  59  83 NW13      30.09R
OKLAHOMA CITY  FAIR      60  41  49 SW14      30.07R
ALBUQUERQUE NM FAIR      59  24  26 N10       30.40R
SALT LAKE CITY PTSUNNY   54  41  61 NE3       30.57R
LOS ANGELES CA FAIR      76  36  23 CALM      30.07R
BOISE ID       FAIR      40  39  97 S6        30.62R
SEATTLE WA     MOCLDY    50  45  83 SE7       30.60R
$$

*** WEATHER ACROSS MANITOBA...SASKATCHEWAN AND ONTARIO ***
                ***ONTARIO***

CITY           SKY/WX    TMP DP  RH WIND       PRES   REMARKS
GERALDTON      CLOUDY    50  45  81 S10       29.75F
THUNDER BAY    PTSUNNY   54  45  71 S7        29.71F
SIOUX LOOKOUT  LGT RAIN  45  41  87 SE2       29.64R
TORONTO        PTSUNNY   64  55  72 SE8       29.97F
BIG TROUT LK   CLOUDY    39  34  81 NW13      29.67R
PICKLE LAKE    PTSUNNY   46  39  76 NE3       29.66S
DRYDEN         LGT RAIN  46  45  93 S2        29.63R
KENORA         LGT RAIN  43  41  93 N13G18    29.69R
$$
                *** MANITOBA***

CITY           SKY/WX    TMP DP  RH WIND       PRES   REMARKS
BRANDON        PTSUNNY   39  36  87 NW13      29.95R
DAUPHIN        SUNNY     37  32  81 W16       29.94R
ISLAND LAKE    NOT AVBL
PILOT MOUND      N/A     37  36  93 NW15G22     N/A
THE PAS        MOSUNNY   37  27  65 NW16      29.92R
THOMPSON       PTSUNNY   30  25  80 NW12G24   29.78R WCI  21
WINNIPEG       MOSUNNY   39  30  70 N17G23    29.87R
LYNN LAKE      CLOUDY    30  28  93 NW12G21   29.84R WCI  21
CHURCHILL      CLOUDY    28  23  80 NW37G49   29.47R WCI  11
GILLAM         PTSUNNY   28  23  80 NW21G28   29.69R WCI  15
$$
                ***SASKATCHEWAN***

CITY           SKY/WX    TMP DP  RH WIND       PRES   REMARKS
ESTEVAN        PTSUNNY   41  34  75 W16G23    30.05R
KINDERSLEY     PTCLDY    36  27  69 W10       30.20R
LLOYDMINSTER   PTCLDY    36  30  80 W15       30.15R
PRINCE ALBERT  MOCLDY    37  34  87 NW12      30.06R
REGINA         PTSUNNY   41  34  75 NW22G28   30.07R
YORKTON        CLOUDY    37  36  93 NW12      29.96R
N. BATTLEFORD  CLEAR     39  30  70 W14G20    30.15R
LA RONGE       MOCLDY    34  30  86 W10       30.01R
SASKATOON      PTCLDY    41  36  81 W15G22    30.10R
SWIFT CURRENT  CLOUDY    39  25  56 W17       30.20R
$$
NOTE: THESE ARE AUTOMATED STATIONS WITH LIMITED QUALITY CONTROL
      "FAIR" INDICATES FEW OR NO CLOUDS BELOW 12,000 FEET WITH NO
      SIGNIFICANT WEATHER AND/OR OBSTRUCTIONS TO VISIBILITY.
      SKY/WX - SKY CONDITION AND SIGNIFICANT WEATHER.
      TMP - AIR TEMPERATURE.    DP   - DEWPOINT TEMPERATURE.
      RH  - RELATIVE HUMIDITY.  PRES - PRESSURE.
      HX  - HEAT INDEX.         WCI  - WIND CHILL INDEX.
$




USA.gov is the U.S. government's official web portal to all federal, state and local government web resources and services.